TimeCST,TemperatureF,Dew PointF,Humidity,Sea Level PressureIn,VisibilityMPH,Wind Direction,Wind SpeedMPH,Gust SpeedMPH,PrecipitationIn,Events,Conditions,WindDirDegrees,DateUTC
12:03 AM,44.6,44.6,100,29.87,2.5,SW,2.3,-,N/A,,Clear,230,2013-12-02 06:03:00
12:13 AM,42.8,42.8,100,29.87,1.5,WSW,4.6,-,N/A,,Clear,240,2013-12-02 06:13:00
12:18 AM,42.8,42.8,100,29.87,1.0,SW,4.6,-,N/A,,Clear,230,2013-12-02 06:18:00
12:38 AM,42.8,42.8,100,29.87,0.8,WSW,4.6,-,N/A,,Mist,250,2013-12-02 06:38:00
12:48 AM,42.8,42.8,100,29.87,0.2,West,4.6,-,N/A,Fog,Fog,270,2013-12-02 06:48:00
12:58 AM,43.9,43.9,100,29.88,0.2,Variable,4.6,-,N/A,Fog,Fog,0,2013-12-02 06:58:00
1:58 AM,44.6,44.6,100,29.87,0.2,NW,2.3,-,N/A,Fog,Fog,310,2013-12-02 07:58:00
2:03 AM,44.6,44.6,100,29.85,0.2,NW,2.3,-,N/A,Fog,Fog,320,2013-12-02 08:03:00
2:08 AM,42.8,42.8,100,29.85,0.2,NW,2.3,-,N/A,Fog,Fog,320,2013-12-02 08:08:00
2:23 AM,42.8,42.8,100,29.86,0.2,Variable,2.3,-,N/A,Fog,Fog,0,2013-12-02 08:23:00
2:55 AM,42.8,42.8,100,29.86,0.2,SW,3.5,-,N/A,Fog,Fog,220,2013-12-02 08:55:00
2:58 AM,43.3,43.3,100,29.87,0.2,SW,3.5,-,0.00,Fog,Fog,230,2013-12-02 08:58:00
3:05 AM,42.8,42.8,100,29.86,0.2,SSW,3.5,-,N/A,Fog,Fog,210,2013-12-02 09:05:00
3:40 AM,42.8,42.8,100,29.84,0.5,Variable,3.5,-,N/A,Fog,Fog,0,2013-12-02 09:40:00
3:50 AM,42.8,42.8,100,29.83,0.2,SSW,3.5,-,N/A,Fog,Fog,210,2013-12-02 09:50:00
3:58 AM,43.0,43.0,100,29.84,0.5,SW,3.5,-,0.00,Fog,Fog,220,2013-12-02 09:58:00
4:08 AM,42.8,42.8,100,29.83,0.8,SW,2.3,-,N/A,,Mostly Cloudy,230,2013-12-02 10:08:00
4:13 AM,42.8,42.8,100,29.83,1.0,WSW,2.3,-,N/A,,Mostly Cloudy,240,2013-12-02 10:13:00
4:18 AM,42.8,42.8,100,29.83,1.2,SW,1.2,-,N/A,,Mostly Cloudy,220,2013-12-02 10:18:00
4:23 AM,42.8,42.8,100,29.82,1.5,NW,1.2,-,N/A,,Mostly Cloudy,320,2013-12-02 10:23:00
4:58 AM,43.2,43.2,100,29.83,2.0,Calm,Calm,-,N/A,,Overcast,0,2013-12-02 10:58:00
5:08 AM,42.8,42.8,100,29.82,3.0,Calm,Calm,-,N/A,,Overcast,0,2013-12-02 11:08:00
5:13 AM,42.8,42.8,100,29.81,2.5,ESE,1.2,-,N/A,,Overcast,110,2013-12-02 11:13:00
5:43 AM,42.8,42.8,100,29.81,3.0,SSW,1.2,-,N/A,,Overcast,210,2013-12-02 11:43:00
5:58 AM,43.3,43.3,100,29.83,4.0,South,2.3,-,N/A,,Overcast,190,2013-12-02 11:58:00
6:58 AM,43.2,43.2,100,29.83,3.0,Calm,Calm,-,N/A,,Overcast,0,2013-12-02 12:58:00
7:03 AM,42.8,42.8,100,29.81,2.5,SSW,1.2,-,N/A,,Mostly Cloudy,210,2013-12-02 13:03:00
7:08 AM,42.8,42.8,100,29.81,1.0,SSW,1.2,-,N/A,,Mostly Cloudy,200,2013-12-02 13:08:00
7:13 AM,42.8,42.8,100,29.80,0.8,South,2.3,-,N/A,,Mostly Cloudy,180,2013-12-02 13:13:00
7:18 AM,42.8,42.8,100,29.80,1.0,South,3.5,-,N/A,,Mostly Cloudy,180,2013-12-02 13:18:00
7:28 AM,42.8,42.8,100,29.80,1.2,South,4.6,-,N/A,,Mostly Cloudy,190,2013-12-02 13:28:00
7:33 AM,42.8,42.8,100,29.80,1.8,South,4.6,-,N/A,,Mostly Cloudy,180,2013-12-02 13:33:00
7:38 AM,42.8,42.8,100,29.80,2.5,SSW,2.3,-,N/A,,Mostly Cloudy,210,2013-12-02 13:38:00
7:43 AM,42.8,42.8,100,29.80,3.0,SSW,1.2,-,N/A,,Mostly Cloudy,210,2013-12-02 13:43:00
7:48 AM,42.8,42.8,100,29.80,3.0,WSW,2.3,-,N/A,,Mostly Cloudy,240,2013-12-02 13:48:00
7:53 AM,42.8,42.8,100,29.80,2.0,WSW,2.3,-,N/A,,Mostly Cloudy,240,2013-12-02 13:53:00
7:58 AM,42.6,42.6,100,29.82,2.0,SW,3.5,-,N/A,,Mostly Cloudy,220,2013-12-02 13:58:00
8:08 AM,42.8,42.8,100,29.79,3.0,SSW,3.5,-,N/A,,Overcast,210,2013-12-02 14:08:00
8:28 AM,44.6,44.6,100,29.78,4.0,South,2.3,-,N/A,,Overcast,180,2013-12-02 14:28:00
8:58 AM,44.8,44.8,100,29.82,5.0,WNW,2.3,-,N/A,,Overcast,290,2013-12-02 14:58:00
9:03 AM,44.6,44.6,100,29.80,5.0,Calm,Calm,-,N/A,,Overcast,0,2013-12-02 15:03:00
9:58 AM,48.2,48.2,100,29.80,10.0,SW,4.6,-,N/A,,Overcast,220,2013-12-02 15:58:00
10:58 AM,51.8,46.4,82,29.78,10.0,Variable,4.6,-,N/A,,Overcast,0,2013-12-02 16:58:00
11:58 AM,55.8,46.4,71,29.74,10.0,SSW,8.1,-,N/A,,Clear,210,2013-12-02 17:58:00
12:58 PM,57.6,45.3,64,29.71,10.0,SSW,5.8,-,N/A,,Clear,200,2013-12-02 18:58:00
1:58 PM,59.9,46.4,61,29.70,10.0,Variable,3.5,-,N/A,,Clear,0,2013-12-02 19:58:00
2:58 PM,58.8,44.6,59,29.68,10.0,Calm,Calm,-,N/A,,Clear,0,2013-12-02 20:58:00
3:58 PM,57.0,44.2,62,29.69,10.0,SSW,3.5,-,N/A,,Clear,210,2013-12-02 21:58:00
4:58 PM,54.0,44.6,71,29.70,10.0,SSW,2.3,-,N/A,,Clear,210,2013-12-02 22:58:00
5:58 PM,50.5,43.9,78,29.71,10.0,South,5.8,-,N/A,,Clear,180,2013-12-02 23:58:00
6:58 PM,48.7,44.2,84,29.72,10.0,South,4.6,-,N/A,,Clear,190,2013-12-03 00:58:00
7:58 PM,45.0,43.2,93,29.72,10.0,South,5.8,-,N/A,,Clear,170,2013-12-03 01:58:00
8:58 PM,48.4,45.7,90,29.71,10.0,South,5.8,-,N/A,,Clear,170,2013-12-03 02:58:00
9:58 PM,46.2,44.6,94,29.68,10.0,SSE,4.6,-,N/A,,Clear,150,2013-12-03 03:58:00
10:58 PM,48.4,46.2,92,29.68,10.0,SSE,4.6,-,N/A,,Partly Cloudy,160,2013-12-03 04:58:00
11:58 PM,44.8,44.4,99,29.69,10.0,SSE,5.8,-,N/A,,Mostly Cloudy,150,2013-12-03 05:58:00